Location: Cruquius
(52.3348°N, 4.6319°E)
Time: 23:12:22
(UTC+00:00)

Gbstr 26 Del rocket - Pass Details

Date: 12 May 2021
Orbit: 492 x 1263 km, 51.8° (Epoch: 24 June)

Event Time Altitude Azimuth Distance (km) Brightness Sun altitude
Rises 22:04:01 0° 286° (WNW) 4,131 7.9 -16.4°
Reaches altitude 10° 22:07:02 10° 283° (WNW) 3,096 7.1 -16.6°
Maximum altitude 22:14:27 63° 205° (SSW) 1,152 4.2 -17.0°
Enters shadow 22:18:36 23° 131° (SE) 1,920 5.0 -17.2°
